This demonstration page uses our WeatherBlox Daily Observations layout. Learn more.

Left ArrowRight Arrow

39.12711, -84.51439

Hourly Observations for August 10, 2016

Temp ( °F °C ) Dew Point ( °F °C ) Humidity (%) Winds ( mph kmh ) Pressure ( in mb ) Visibility ( mi km ) Precip ( " mm )
12:53 am 00:53 Clear 75 23.9 74 23.3 96 96 N N/A 30.04 1017 10 16 N/A
1:53 am 01:53 Mostly Cloudy 73 22.8 73 22.8 100 100 N N/A 30.05 1018 10 16 N/A
2:53 am 02:53 Mostly Cloudy 73 22.8 73 22.8 100 100 N N/A 30.04 1017 10 16 N/A
3:53 am 03:53 Cloudy 74 23.3 74 23.3 100 100 N N/A 30.04 1017 9 14 N/A
4:53 am 04:53 Cloudy 74 23.3 74 23.3 100 100 N N/A 30.03 1017 10 16 0.01 0.25
5:53 am 05:53 Cloudy 74 23.3 74 23.3 100 100 N N/A 30.04 1017 10 16 N/A
6:53 am 06:53 Cloudy 74 23.3 74 23.3 100 100 N N/A 30.06 1018 10 16 N/A
7:53 am 07:53 Mostly Sunny 75 23.9 75 23.9 100 100 N N/A 30.08 1019 8 13 N/A
8:53 am 08:53 Sunny 78 25.6 76 24.4 93 93 SSW 5 7 30.09 1019 10 16 N/A
9:53 am 09:53 Mostly Cloudy 79 26.1 76 24.4 90 90 S 5 7 30.10 1019 10 16 N/A
10:53 am 10:53 Cloudy 79 26.1 77 25 94 94 N N/A 30.11 1020 10 16 0.05 1.27
11:53 am 11:53 Mostly Cloudy 82 27.8 78 25.6 88 88 NE 5 7 30.13 1020 10 16 N/A
12:53 pm 12:53 Mostly Cloudy 86 30 79 26.1 80 80 VRB 3 6 30.11 1020 10 16 N/A
1:11 pm 13:11 Mostly Cloudy with Rain 84 28.9 78 25.6 82 82 N N/A 30.09 1019 3 4 0.05 1.27
1:19 pm 13:19 Partly Cloudy 86 30 79 26.1 80 80 SE 5 7 30.09 1019 10 16 0.05 1.27
1:53 pm 13:53 Partly Cloudy 85 29.4 80 26.7 85 85 E 3 6 30.09 1019 10 16 0.05 1.27
2:53 pm 14:53 Mostly Cloudy 88 31.1 79 26.1 75 75 NNW 8 13 30.08 1019 10 16 N/A
3:53 pm 15:53 Mostly Sunny 90 32.2 76 24.4 63 63 N N/A 30.06 1018 10 16 N/A
4:53 pm 16:53 Mostly Cloudy 87 30.6 77 25 72 72 N N/A 30.06 1018 10 16 N/A
5:35 pm 17:35 Cloudy with Nearby Thunderstorms 84 28.9 78 25.6 82 82 NE 8 13 30.06 1018 10 16 N/A
5:53 pm 17:53 Mostly Cloudy 83 28.3 77 25 82 82 NNE 8 13 30.06 1018 10 16 N/A
6:53 pm 18:53 Mostly Cloudy with Nearby Thunderstorms 82 27.8 78 25.6 88 88 NE 6 9 30.06 1018 10 16 N/A
7:33 pm 19:33 Partly Cloudy 82 27.8 77 25 85 85 ENE 7 11 30.03 1017 10 16 N/A
7:53 pm 19:53 Partly Cloudy 82 27.8 77 25 85 85 NNE 6 9 30.06 1018 10 16 N/A
8:53 pm 20:53 Clear 79 26.1 77 25 94 94 NE 8 13 30.06 1018 10 16 N/A
9:53 pm 21:53 Clear 78 25.6 77 25 97 97 ENE 7 11 30.08 1019 10 16 N/A
10:53 pm 22:53 Clear 77 25 75 23.9 94 94 N N/A 30.09 1019 10 16 N/A
11:53 pm 23:53 Clear 74 23.3 74 23.3 100 100 N N/A 30.08 1019 10 16 N/A

Powered by AerisWeather